| time (UTC) | temp F | wind direction | speed MPH | gust MPH | rain 1hr in | rain 24hr in | rain mn in | humidity % | barometer mb |
| 20260510011025 | 56 | 138 | 2.0 | 6.0 | 0.00 | 0.00 | 0.00 | 100 | 1029.0 |
| 20260510010522 | 56 | 137 | 3.0 | 5.0 | 0.00 | 0.00 | 0.00 | 100 | 1029.0 |
| 20260510010138 | 55 | 142 | 4.0 | 6.0 | 0.00 | 0.00 | 0.00 | 100 | 1029.0 |
| 20260510005522 | 54 | 141 | 3.0 | 6.0 | 0.00 | 0.00 | 0.00 | 100 | 1029.0 |
| 20260510005023 | 54 | 134 | 2.0 | 7.0 | 0.00 | 0.00 | 0.00 | 100 | 1029.0 |
| 20260510004523 | 55 | 129 | 2.0 | 6.0 | 0.00 | 0.00 | 0.00 | 100 | 1029.0 |
| 20260510004137 | 54 | 133 | 2.0 | 6.0 | 0.00 | 0.00 | 0.00 | 100 | 1029.0 |
| 20260510003637 | 54 | 143 | 2.0 | 5.0 | 0.00 | 0.00 | 0.00 | 100 | 1029.0 |
| 20260510003024 | 54 | 142 | 2.0 | 5.0 | 0.00 | 0.00 | 0.00 | 100 | 1029.0 |
| 20260510002523 | 54 | 140 | 2.0 | 6.0 | 0.00 | 0.00 | 0.00 | 100 | 1029.0 |
| 20260510002022 | 53 | 141 | 2.0 | 5.0 | 0.00 | 0.00 | 0.00 | 100 | 1029.0 |
| 20260510001523 | 52 | 138 | 2.0 | 5.0 | 0.00 | 0.00 | 0.00 | 100 | 1029.0 |
| 20260510001023 | 52 | 137 | 3.0 | 6.0 | 0.00 | 0.00 | 0.00 | 100 | 1029.0 |
| 20260510000523 | 52 | 138 | 3.0 | 6.0 | 0.00 | 0.00 | 0.00 | 100 | 1029.0 |
| 20260510000023 | 51 | 148 | 2.0 | 6.0 | 0.00 | 0.00 | 0.00 | 100 | 1029.0 |
| 20260509235522 | 52 | 151 | 0.0 | 4.0 | 0.00 | 0.00 | 0.00 | 100 | 1029.0 |
| 20260509235022 | 52 | 132 | 0.0 | 3.0 | 0.00 | 0.00 | 0.00 | 100 | 1029.0 |
| 20260509234638 | 52 | 129 | 0.0 | 0.0 | 0.00 | 0.00 | 0.00 | 100 | 1029.0 |
| 20260509234023 | 52 | 146 | 0.0 | 2.0 | 0.00 | 0.00 | 0.00 | 100 | 1029.0 |
| 20260509233637 | 51 | 169 | 0.0 | 2.0 | 0.00 | 0.00 | 0.00 | 100 | 1029.0 |
| 20260509233023 | 51 | 192 | 0.0 | 0.0 | 0.00 | 0.00 | 0.00 | 100 | 1029.0 |
| 20260509232523 | 50 | 194 | 0.0 | 2.0 | 0.00 | 0.00 | 0.00 | 100 | 1029.0 |
| 20260509232023 | 50 | 187 | 0.0 | 2.0 | 0.00 | 0.00 | 0.00 | 100 | 1029.0 |
| 20260509231522 | 50 | 178 | 0.0 | 2.0 | 0.00 | 0.00 | 0.00 | 100 | 1029.0 |
| 20260509231023 | 50 | 163 | 0.0 | 0.0 | 0.00 | 0.00 | 0.00 | 100 | 1029.0 |
| 20260509230523 | 50 | 152 | 0.0 | 2.0 | 0.00 | 0.00 | 0.00 | 100 | 1029.0 |
| 20260509230024 | 49 | 160 | 0.0 | 2.0 | 0.00 | 0.00 | 0.00 | 100 | 1029.0 |
| 20260509225522 | 49 | 164 | 0.0 | 3.0 | 0.00 | 0.00 | 0.00 | 100 | 1029.0 |
| 20260509225023 | 49 | 154 | 0.0 | 2.0 | 0.00 | 0.00 | 0.00 | 100 | 1029.0 |
| 20260509224523 | 49 | 150 | 1.0 | 2.0 | 0.00 | 0.00 | 0.00 | 100 | 1029.0 |
| 20260509224023 | 48 | 144 | 2.0 | 3.0 | 0.00 | 0.00 | 0.00 | 100 | 1029.0 |
| 20260509223523 | 48 | 136 | 1.0 | 3.0 | 0.00 | 0.00 | 0.00 | 100 | 1028.0 |
| 20260509223023 | 48 | 144 | 0.0 | 2.0 | 0.00 | 0.00 | 0.00 | 100 | 1028.0 |
| 20260509222523 | 48 | 149 | 0.0 | 2.0 | 0.00 | 0.00 | 0.00 | 100 | 1028.0 |
| 20260509222023 | 48 | 133 | 0.0 | 2.0 | 0.00 | 0.00 | 0.00 | 100 | 1028.0 |
| 20260509221523 | 48 | 118 | 0.0 | 1.0 | 0.00 | 0.00 | 0.00 | 100 | 1028.0 |
| 20260509221022 | 48 | 114 | 0.0 | 0.0 | 0.00 | 0.00 | 0.00 | 100 | 1028.0 |
| 20260509220523 | 48 | 114 | 0.0 | 0.0 | 0.00 | 0.00 | 0.00 | 100 | 1028.0 |
| 20260509220024 | 47 | 114 | 0.0 | 0.0 | 0.00 | 0.00 | 0.00 | 100 | 1028.0 |
| 20260509215523 | 47 | 115 | 0.0 | 0.0 | 0.00 | 0.00 | 0.00 | 100 | 1028.0 |
| 20260509215022 | 47 | 118 | 0.0 | 1.0 | 0.00 | 0.00 | 0.00 | 100 | 1028.0 |
| 20260509214523 | 46 | 135 | 0.0 | 1.0 | 0.00 | 0.00 | 0.00 | 100 | 1028.0 |
| 20260509214138 | 46 | 142 | 0.0 | 2.0 | 0.00 | 0.00 | 0.00 | 100 | 1028.0 |
| 20260509213523 | 46 | 140 | 0.0 | 2.0 | 0.00 | 0.00 | 0.00 | 100 | 1028.0 |
| 20260509213023 | 46 | 149 | 1.0 | 2.0 | 0.00 | 0.00 | 0.00 | 100 | 1028.0 |
| 20260509212522 | 46 | 145 | 1.0 | 2.0 | 0.00 | 0.00 | 0.00 | 100 | 1028.0 |
| 20260509212138 | 46 | 132 | 2.0 | 4.0 | 0.00 | 0.00 | 0.00 | 100 | 1028.0 |
| 20260509211523 | 46 | 126 | 2.0 | 3.0 | 0.00 | 0.00 | 0.00 | 100 | 1028.0 |
| 20260509211023 | 46 | 126 | 2.0 | 5.0 | 0.00 | 0.00 | 0.00 | 100 | 1028.0 |
| 20260509210522 | 46 | 127 | 1.0 | 3.0 | 0.00 | 0.00 | 0.00 | 100 | 1028.0 |
| 20260509210138 | 46 | 126 | 0.0 | 2.0 | 0.00 | 0.00 | 0.00 | 100 | 1028.0 |
| 20260509205523 | 46 | 133 | 0.0 | 2.0 | 0.00 | 0.00 | 0.00 | 100 | 1028.0 |
| 20260509205023 | 46 | 140 | 1.0 | 2.0 | 0.00 | 0.00 | 0.00 | 100 | 1027.0 |
| 20260509204523 | 45 | 140 | 2.0 | 3.0 | 0.00 | 0.00 | 0.00 | 100 | 1027.0 |
| 20260509204022 | 45 | 144 | 2.0 | 3.0 | 0.00 | 0.00 | 0.00 | 100 | 1027.0 |
| 20260509203523 | 45 | 141 | 1.0 | 3.0 | 0.00 | 0.00 | 0.00 | 100 | 1027.0 |
| 20260509203138 | 45 | 62 | 0.0 | 2.0 | 0.00 | 0.00 | 0.00 | 100 | 1027.0 |
| 20260509202522 | 44 | 327 | 0.0 | 1.0 | 0.00 | 0.00 | 0.00 | 100 | 1027.0 |
| 20260509202023 | 44 | 326 | 0.0 | 1.0 | 0.00 | 0.00 | 0.00 | 100 | 1027.0 |
| 20260509201523 | 44 | 326 | 0.0 | 0.0 | 0.00 | 0.00 | 0.00 | 100 | 1027.0 |
| 20260509201023 | 44 | 325 | 0.0 | 1.0 | 0.00 | 0.00 | 0.00 | 100 | 1027.0 |
| 20260509200523 | 44 | 319 | 1.0 | 2.0 | 0.00 | 0.00 | 0.00 | 100 | 1027.0 |
| 20260509200023 | 44 | 313 | 0.0 | 2.0 | 0.00 | 0.00 | 0.00 | 100 | 1027.0 |
| 20260509195638 | 44 | 312 | 0.0 | 0.0 | 0.00 | 0.00 | 0.00 | 100 | 1027.0 |
| 20260509195023 | 45 | 312 | 0.0 | 0.0 | 0.00 | 0.00 | 0.00 | 100 | 1027.0 |
| 20260509194523 | 45 | 312 | 0.0 | 0.0 | 0.00 | 0.00 | 0.00 | 100 | 1027.0 |
| 20260509194023 | 46 | 311 | 0.0 | 0.0 | 0.00 | 0.00 | 0.00 | 100 | 1027.0 |
| 20260509193523 | 46 | 303 | 0.0 | 1.0 | 0.00 | 0.00 | 0.00 | 100 | 1026.0 |
| 20260509193023 | 47 | 201 | 0.0 | 1.0 | 0.00 | 0.00 | 0.00 | 100 | 1026.0 |
| 20260509192522 | 47 | 140 | 1.0 | 3.0 | 0.00 | 0.00 | 0.00 | 100 | 1026.0 |
| 20260509192022 | 47 | 135 | 1.0 | 3.0 | 0.00 | 0.00 | 0.00 | 100 | 1026.0 |
| 20260509191638 | 48 | 132 | 1.0 | 2.0 | 0.00 | 0.00 | 0.00 | 100 | 1026.0 |
| 20260509191022 | 48 | 136 | 2.0 | 5.0 | 0.00 | 0.00 | 0.00 | 100 | 1026.0 |
| 20260509190522 | 47 | 138 | 3.0 | 4.0 | 0.00 | 0.00 | 0.00 | 100 | 1026.0 |
| 20260509190023 | 48 | 138 | 3.0 | 5.0 | 0.00 | 0.00 | 0.00 | 100 | 1026.0 |
| 20260509185522 | 47 | 137 | 2.0 | 4.0 | 0.00 | 0.00 | 0.00 | 100 | 1026.0 |
| 20260509185022 | 46 | 136 | 1.0 | 2.0 | 0.00 | 0.00 | 0.00 | 100 | 1026.0 |
| 20260509184523 | 47 | 102 | 1.0 | 2.0 | 0.00 | 0.00 | 0.00 | 100 | 1026.0 |
| 20260509184022 | 46 | 8 | 0.0 | 2.0 | 0.00 | 0.00 | 0.00 | 100 | 1026.0 |
| 20260509183637 | 45 | 328 | 0.0 | 1.0 | 0.00 | 0.00 | 0.00 | 100 | 1026.0 |
| 20260509183138 | 45 | 315 | 0.0 | 0.0 | 0.00 | 0.00 | 0.00 | 100 | 1026.0 |
| 20260509182522 | 45 | 318 | 0.0 | 1.0 | 0.00 | 0.00 | 0.00 | 100 | 1026.0 |
| 20260509182022 | 45 | 114 | 0.0 | 1.0 | 0.00 | 0.00 | 0.00 | 100 | 1026.0 |
| 20260509181523 | 46 | 117 | 0.0 | 0.0 | 0.00 | 0.00 | 0.00 | 100 | 1026.0 |
| 20260509181022 | 47 | 108 | 1.0 | 2.0 | 0.00 | 0.00 | 0.00 | 100 | 1026.0 |
| 20260509180522 | 47 | 105 | 2.0 | 3.0 | 0.00 | 0.00 | 0.00 | 100 | 1026.0 |
| 20260509180138 | 47 | 105 | 2.0 | 4.0 | 0.00 | 0.00 | 0.00 | 100 | 1026.0 |
| 20260509175522 | 47 | 106 | 1.0 | 3.0 | 0.00 | 0.00 | 0.00 | 100 | 1026.0 |
| 20260509175023 | 48 | 116 | 2.0 | 3.0 | 0.00 | 0.00 | 0.00 | 100 | 1026.0 |
| 20260509174638 | 48 | 129 | 2.0 | 3.0 | 0.00 | 0.00 | 0.00 | 100 | 1026.0 |
| 20260509174022 | 48 | 134 | 2.0 | 3.0 | 0.00 | 0.00 | 0.00 | 100 | 1026.0 |
| 20260509173522 | 47 | 117 | 1.0 | 3.0 | 0.00 | 0.00 | 0.00 | 100 | 1026.0 |
| 20260509173023 | 47 | 99 | 1.0 | 3.0 | 0.00 | 0.00 | 0.00 | 100 | 1026.0 |
| 20260509172523 | 47 | 103 | 2.0 | 3.0 | 0.00 | 0.00 | 0.00 | 100 | 1026.0 |
| 20260509172022 | 48 | 108 | 2.0 | 3.0 | 0.00 | 0.00 | 0.00 | 100 | 1026.0 |
| 20260509171523 | 48 | 118 | 1.0 | 3.0 | 0.00 | 0.00 | 0.00 | 100 | 1026.0 |
| 20260509171023 | 48 | 132 | 1.0 | 2.0 | 0.00 | 0.00 | 0.00 | 100 | 1026.0 |
| 20260509170522 | 48 | 139 | 2.0 | 3.0 | 0.00 | 0.00 | 0.00 | 100 | 1026.0 |
| 20260509170023 | 48 | 140 | 1.0 | 2.0 | 0.00 | 0.00 | 0.00 | 100 | 1026.0 |
| 20260509165522 | 48 | 141 | 1.0 | 1.0 | 0.00 | 0.00 | 0.00 | 100 | 1026.0 |
| 20260509165138 | 48 | 139 | 1.0 | 2.0 | 0.00 | 0.00 | 0.00 | 100 | 1026.0 |
| 20260509164524 | 47 | 129 | 1.0 | 2.0 | 0.00 | 0.00 | 0.00 | 100 | 1026.0 |
| 20260509164022 | 47 | 120 | 0.0 | 2.0 | 0.00 | 0.00 | 0.00 | 100 | 1026.0 |
| 20260509163522 | 46 | 116 | 0.0 | 1.0 | 0.00 | 0.00 | 0.00 | 100 | 1026.0 |
| 20260509163023 | 46 | 118 | 0.0 | 0.0 | 0.00 | 0.00 | 0.00 | 100 | 1026.0 |
| 20260509162638 | 47 | 114 | 0.0 | 1.0 | 0.00 | 0.00 | 0.00 | 100 | 1026.0 |
| 20260509162023 | 47 | 102 | 0.0 | 2.0 | 0.00 | 0.00 | 0.00 | 100 | 1026.0 |
| 20260509161523 | 46 | 93 | 0.0 | 0.0 | 0.00 | 0.00 | 0.00 | 100 | 1026.0 |
| 20260509161023 | 46 | 67 | 0.0 | 1.0 | 0.00 | 0.00 | 0.00 | 100 | 1026.0 |
| 20260509160523 | 46 | 46 | 0.0 | 1.0 | 0.00 | 0.00 | 0.00 | 100 | 1026.0 |
| 20260509160024 | 46 | 38 | 0.0 | 1.0 | 0.00 | 0.00 | 0.00 | 100 | 1026.0 |
| 20260509155522 | 46 | 33 | 0.0 | 1.0 | 0.00 | 0.00 | 0.00 | 100 | 1026.0 |
| 20260509155022 | 47 | 31 | 1.0 | 1.0 | 0.00 | 0.00 | 0.00 | 100 | 1026.0 |
| 20260509154524 | 46 | 39 | 1.0 | 3.0 | 0.00 | 0.00 | 0.00 | 100 | 1026.0 |
| 20260509154023 | 46 | 97 | 0.0 | 3.0 | 0.00 | 0.00 | 0.00 | 100 | 1026.0 |
| 20260509153637 | 46 | 151 | 0.0 | 1.0 | 0.00 | 0.00 | 0.00 | 100 | 1026.0 |
| 20260509153023 | 46 | 163 | 0.0 | 0.0 | 0.00 | 0.00 | 0.00 | 100 | 1026.0 |
| 20260509152523 | 47 | 152 | 0.0 | 1.0 | 0.00 | 0.00 | 0.00 | 100 | 1026.0 |
| 20260509152023 | 48 | 145 | 2.0 | 3.0 | 0.00 | 0.00 | 0.00 | 100 | 1026.0 |
| 20260509151523 | 49 | 147 | 2.0 | 5.0 | 0.00 | 0.00 | 0.00 | 100 | 1026.0 |
| 20260509151023 | 49 | 140 | 2.0 | 4.0 | 0.00 | 0.00 | 0.00 | 100 | 1026.0 |
| 20260509150523 | 49 | 133 | 2.0 | 4.0 | 0.00 | 0.00 | 0.00 | 100 | 1026.0 |
| 20260509150023 | 49 | 128 | 2.0 | 3.0 | 0.00 | 0.00 | 0.00 | 100 | 1026.0 |
| 20260509145522 | 49 | 121 | 1.0 | 5.0 | 0.00 | 0.00 | 0.00 | 100 | 1026.0 |
| 20260509145022 | 49 | 116 | 1.0 | 5.0 | 0.00 | 0.00 | 0.00 | 100 | 1026.0 |
| 20260509144523 | 49 | 115 | 1.0 | 3.0 | 0.00 | 0.00 | 0.00 | 100 | 1026.0 |
| 20260509144023 | 49 | 120 | 1.0 | 3.0 | 0.00 | 0.00 | 0.00 | 100 | 1026.0 |
| 20260509143523 | 48 | 124 | 1.0 | 4.0 | 0.00 | 0.00 | 0.00 | 100 | 1026.0 |
| 20260509143023 | 49 | 118 | 1.0 | 4.0 | 0.00 | 0.00 | 0.00 | 100 | 1026.0 |
| 20260509142522 | 49 | 118 | 2.0 | 3.0 | 0.00 | 0.00 | 0.00 | 100 | 1026.0 |
| 20260509142023 | 50 | 124 | 3.0 | 6.0 | 0.00 | 0.00 | 0.00 | 100 | 1026.0 |
| 20260509141523 | 50 | 120 | 3.0 | 5.0 | 0.00 | 0.00 | 0.00 | 100 | 1026.0 |
| 20260509141022 | 50 | 116 | 3.0 | 8.0 | 0.00 | 0.00 | 0.00 | 100 | 1026.0 |
| 20260509140523 | 50 | 117 | 2.0 | 4.0 | 0.00 | 0.00 | 0.00 | 100 | 1026.0 |
| 20260509140023 | 49 | 113 | 2.0 | 5.0 | 0.00 | 0.00 | 0.00 | 100 | 1026.0 |
| 20260509135523 | 49 | 113 | 2.0 | 5.0 | 0.00 | 0.00 | 0.00 | 100 | 1026.0 |
| 20260509135022 | 49 | 114 | 2.0 | 6.0 | 0.00 | 0.00 | 0.00 | 100 | 1026.0 |
| 20260509134638 | 49 | 119 | 1.0 | 4.0 | 0.00 | 0.00 | 0.00 | 100 | 1026.0 |
| 20260509134023 | 49 | 131 | 1.0 | 4.0 | 0.00 | 0.00 | 0.00 | 100 | 1026.0 |
| 20260509133523 | 50 | 136 | 2.0 | 4.0 | 0.00 | 0.00 | 0.00 | 100 | 1026.0 |
| 20260509133023 | 50 | 133 | 2.0 | 7.0 | 0.00 | 0.00 | 0.00 | 100 | 1026.0 |
| 20260509132522 | 50 | 122 | 2.0 | 4.0 | 0.00 | 0.00 | 0.00 | 100 | 1026.0 |
| 20260509132138 | 49 | 115 | 2.0 | 4.0 | 0.00 | 0.00 | 0.00 | 100 | 1026.0 |
| 20260509131524 | 49 | 130 | 2.0 | 3.0 | 0.00 | 0.00 | 0.00 | 100 | 1026.0 |
| 20260509131022 | 49 | 144 | 2.0 | 4.0 | 0.00 | 0.00 | 0.00 | 100 | 1026.0 |
| 20260509130522 | 49 | 143 | 3.0 | 5.0 | 0.00 | 0.00 | 0.00 | 100 | 1026.0 |
| 20260509130023 | 49 | 145 | 3.0 | 4.0 | 0.00 | 0.00 | 0.00 | 100 | 1026.0 |
| 20260509125523 | 50 | 149 | 3.0 | 5.0 | 0.00 | 0.00 | 0.00 | 100 | 1026.0 |
| 20260509125022 | 50 | 148 | 3.0 | 5.0 | 0.00 | 0.00 | 0.00 | 100 | 1026.0 |
| 20260509124523 | 50 | 141 | 3.0 | 4.0 | 0.00 | 0.00 | 0.00 | 100 | 1026.0 |
| 20260509124023 | 50 | 135 | 2.0 | 4.0 | 0.00 | 0.00 | 0.00 | 100 | 1026.0 |
| 20260509123523 | 48 | 135 | 1.0 | 3.0 | 0.00 | 0.00 | 0.00 | 100 | 1026.0 |
| 20260509123024 | 48 | 154 | 0.0 | 1.0 | 0.00 | 0.00 | 0.00 | 100 | 1026.0 |
| 20260509122523 | 49 | 185 | 0.0 | 2.0 | 0.00 | 0.00 | 0.00 | 100 | 1026.0 |
| 20260509122023 | 48 | 194 | 0.0 | 0.0 | 0.00 | 0.00 | 0.00 | 100 | 1026.0 |
| 20260509121523 | 48 | 194 | 0.0 | 0.0 | 0.00 | 0.00 | 0.00 | 100 | 1026.0 |
| 20260509121138 | 49 | 191 | 0.0 | 1.0 | 0.00 | 0.00 | 0.00 | 100 | 1026.0 |
| 20260509120524 | 50 | 178 | 1.0 | 1.0 | 0.00 | 0.00 | 0.00 | 100 | 1026.0 |
| 20260509120139 | 51 | 165 | 1.0 | 2.0 | 0.00 | 0.00 | 0.00 | 100 | 1026.0 |
| 20260509115523 | 50 | 151 | 1.0 | 2.0 | 0.00 | 0.00 | 0.00 | 100 | 1026.0 |
| 20260509115138 | 50 | 143 | 2.0 | 3.0 | 0.00 | 0.00 | 0.00 | 100 | 1026.0 |
| 20260509114523 | 51 | 138 | 3.0 | 4.0 | 0.00 | 0.00 | 0.00 | 100 | 1026.0 |
| 20260509114022 | 51 | 131 | 2.0 | 4.0 | 0.00 | 0.00 | 0.00 | 100 | 1026.0 |
| 20260509113522 | 50 | 133 | 1.0 | 3.0 | 0.00 | 0.00 | 0.00 | 100 | 1026.0 |
| 20260509113024 | 50 | 133 | 1.0 | 2.0 | 0.00 | 0.00 | 0.00 | 100 | 1026.0 |
| 20260509112522 | 51 | 128 | 2.0 | 3.0 | 0.00 | 0.00 | 0.00 | 100 | 1026.0 |
| 20260509112022 | 51 | 131 | 1.0 | 2.0 | 0.00 | 0.00 | 0.00 | 100 | 1026.0 |
| 20260509111523 | 51 | 128 | 0.0 | 1.0 | 0.00 | 0.00 | 0.00 | 100 | 1026.0 |
| 20260509111022 | 50 | 130 | 0.0 | 1.0 | 0.00 | 0.00 | 0.00 | 100 | 1026.0 |
| 20260509110637 | 50 | 160 | 0.0 | 1.0 | 0.00 | 0.00 | 0.00 | 100 | 1026.0 |
| 20260509110023 | 50 | 179 | 0.0 | 0.0 | 0.00 | 0.00 | 0.00 | 100 | 1026.0 |
| 20260509105522 | 50 | 182 | 0.0 | 0.0 | 0.00 | 0.00 | 0.00 | 100 | 1026.0 |
| 20260509105023 | 50 | 199 | 0.0 | 1.0 | 0.00 | 0.00 | 0.00 | 100 | 1026.0 |
| 20260509104638 | 51 | 236 | 0.0 | 1.0 | 0.00 | 0.00 | 0.00 | 100 | 1026.0 |
| 20260509104022 | 50 | 249 | 0.0 | 0.0 | 0.00 | 0.00 | 0.00 | 100 | 1026.0 |
| 20260509103523 | 50 | 233 | 0.0 | 0.0 | 0.00 | 0.00 | 0.00 | 100 | 1026.0 |
| 20260509103024 | 51 | 225 | 0.0 | 1.0 | 0.00 | 0.00 | 0.00 | 100 | 1026.0 |
| 20260509102523 | 51 | 229 | 0.0 | 2.0 | 0.00 | 0.00 | 0.00 | 100 | 1026.0 |
| 20260509102022 | 51 | 160 | 0.0 | 2.0 | 0.00 | 0.00 | 0.00 | 100 | 1026.0 |
| 20260509101523 | 51 | 65 | 0.0 | 1.0 | 0.00 | 0.00 | 0.00 | 100 | 1026.0 |
| 20260509101138 | 51 | 333 | 0.0 | 1.0 | 0.00 | 0.00 | 0.00 | 100 | 1026.0 |
| 20260509100523 | 51 | 333 | 0.0 | 0.0 | 0.00 | 0.00 | 0.00 | 100 | 1026.0 |
| 20260509100023 | 51 | 333 | 0.0 | 0.0 | 0.00 | 0.00 | 0.00 | 100 | 1026.0 |
| 20260509095522 | 51 | 333 | 0.0 | 0.0 | 0.00 | 0.00 | 0.00 | 100 | 1026.0 |
| 20260509095023 | 51 | 333 | 0.0 | 0.0 | 0.00 | 0.00 | 0.00 | 100 | 1026.0 |
| 20260509094522 | 51 | 340 | 0.0 | 0.0 | 0.00 | 0.00 | 0.00 | 100 | 1026.0 |
| 20260509094137 | 51 | 346 | 0.0 | 1.0 | 0.00 | 0.00 | 0.00 | 100 | 1026.0 |
| 20260509093522 | 51 | 326 | 0.0 | 1.0 | 0.00 | 0.00 | 0.00 | 100 | 1026.0 |
| 20260509093024 | 52 | 302 | 0.0 | 0.0 | 0.00 | 0.00 | 0.00 | 100 | 1026.0 |
| 20260509092523 | 51 | 305 | 0.0 | 2.0 | 0.00 | 0.00 | 0.00 | 100 | 1026.0 |
| 20260509092137 | 51 | 307 | 0.0 | 1.0 | 0.00 | 0.00 | 0.00 | 100 | 1025.0 |
| 20260509091523 | 51 | 305 | 0.0 | 2.0 | 0.00 | 0.00 | 0.00 | 100 | 1025.0 |
| 20260509091023 | 52 | 301 | 0.0 | 3.0 | 0.00 | 0.00 | 0.00 | 100 | 1025.0 |
| 20260509090523 | 52 | 303 | 1.0 | 3.0 | 0.00 | 0.00 | 0.00 | 100 | 1025.0 |
| 20260509090023 | 52 | 311 | 2.0 | 3.0 | 0.00 | 0.00 | 0.00 | 100 | 1025.0 |
| 20260509085522 | 51 | 313 | 1.0 | 3.0 | 0.00 | 0.00 | 0.00 | 100 | 1025.0 |
| 20260509085022 | 51 | 315 | 1.0 | 2.0 | 0.00 | 0.00 | 0.00 | 100 | 1025.0 |
| 20260509084638 | 51 | 314 | 1.0 | 3.0 | 0.00 | 0.00 | 0.00 | 100 | 1025.0 |
| 20260509084023 | 51 | 317 | 1.0 | 4.0 | 0.00 | 0.00 | 0.00 | 100 | 1025.0 |
| 20260509083523 | 52 | 312 | 1.0 | 3.0 | 0.00 | 0.00 | 0.00 | 100 | 1025.0 |
| 20260509083023 | 52 | 304 | 1.0 | 3.0 | 0.00 | 0.00 | 0.00 | 100 | 1025.0 |
| 20260509082522 | 52 | 303 | 1.0 | 2.0 | 0.00 | 0.00 | 0.00 | 100 | 1025.0 |
| 20260509082023 | 53 | 299 | 1.0 | 4.0 | 0.00 | 0.00 | 0.00 | 100 | 1025.0 |
| 20260509081523 | 52 | 300 | 1.0 | 3.0 | 0.00 | 0.00 | 0.00 | 100 | 1025.0 |
| 20260509081137 | 52 | 305 | 1.0 | 3.0 | 0.00 | 0.00 | 0.00 | 100 | 1025.0 |
| 20260509080522 | 52 | 311 | 1.0 | 3.0 | 0.00 | 0.00 | 0.00 | 99 | 1025.0 |
| 20260509080023 | 52 | 313 | 1.0 | 3.0 | 0.00 | 0.00 | 0.00 | 97 | 1025.0 |
| 20260509075638 | 53 | 312 | 2.0 | 3.0 | 0.00 | 0.00 | 0.00 | 96 | 1025.0 |
| 20260509075022 | 52 | 313 | 1.0 | 4.0 | 0.00 | 0.00 | 0.00 | 93 | 1024.0 |
| 20260509074523 | 53 | 314 | 1.0 | 2.0 | 0.00 | 0.00 | 0.00 | 92 | 1024.0 |
| 20260509074137 | 53 | 315 | 1.0 | 4.0 | 0.00 | 0.00 | 0.00 | 91 | 1024.0 |
| 20260509073523 | 54 | 312 | 2.0 | 2.0 | 0.00 | 0.00 | 0.00 | 89 | 1024.0 |
| 20260509073023 | 55 | 300 | 2.0 | 4.0 | 0.00 | 0.00 | 0.00 | 85 | 1024.0 |
| 20260509072637 | 56 | 295 | 1.0 | 4.0 | 0.00 | 0.00 | 0.00 | 84 | 1024.0 |
| 20260509072023 | 57 | 303 | 1.0 | 2.0 | 0.00 | 0.00 | 0.00 | 82 | 1024.0 |
| 20260509071524 | 58 | 303 | 1.0 | 2.0 | 0.00 | 0.00 | 0.00 | 78 | 1024.0 |
| 20260509071022 | 60 | 293 | 1.0 | 2.0 | 0.00 | 0.00 | 0.00 | 77 | 1024.0 |
| 20260509070522 | 61 | 290 | 0.0 | 2.0 | 0.00 | 0.00 | 0.00 | 74 | 1024.0 |
| 20260509070023 | 61 | 264 | 0.0 | 1.0 | 0.00 | 0.00 | 0.00 | 72 | 1024.0 |
| 20260509065523 | 62 | 237 | 1.0 | 3.0 | 0.00 | 0.00 | 0.00 | 70 | 1024.0 |
| 20260509065023 | 62 | 230 | 2.0 | 4.0 | 0.00 | 0.00 | 0.00 | 69 | 1024.0 |
| 20260509064638 | 63 | 223 | 1.0 | 3.0 | 0.00 | 0.00 | 0.00 | 68 | 1024.0 |
| 20260509064023 | 63 | 215 | 1.0 | 2.0 | 0.00 | 0.00 | 0.00 | 67 | 1024.0 |
| 20260509063523 | 63 | 204 | 1.0 | 3.0 | 0.00 | 0.00 | 0.00 | 67 | 1024.0 |
| 20260509063023 | 63 | 199 | 1.0 | 2.0 | 0.00 | 0.00 | 0.00 | 65 | 1024.0 |
| 20260509062522 | 64 | 204 | 1.0 | 2.0 | 0.00 | 0.00 | 0.00 | 65 | 1024.0 |
| 20260509062022 | 64 | 224 | 0.0 | 3.0 | 0.00 | 0.00 | 0.00 | 62 | 1024.0 |
| 20260509061523 | 65 | 263 | 1.0 | 3.0 | 0.00 | 0.00 | 0.00 | 62 | 1024.0 |
| 20260509061138 | 66 | 271 | 2.0 | 5.0 | 0.00 | 0.00 | 0.00 | 60 | 1024.0 |
| 20260509060523 | 66 | 268 | 2.0 | 4.0 | 0.00 | 0.00 | 0.00 | 60 | 1024.0 |
| 20260509060023 | 66 | 286 | 1.0 | 5.0 | 0.00 | 0.00 | 0.00 | 60 | 1024.0 |
| 20260509055522 | 66 | 311 | 1.0 | 4.0 | 0.00 | 0.00 | 0.00 | 60 | 1024.0 |
| 20260509055023 | 66 | 326 | 2.0 | 3.0 | 0.00 | 0.00 | 0.00 | 62 | 1024.0 |
| 20260509054638 | 67 | 333 | 2.0 | 4.0 | 0.00 | 0.00 | 0.00 | 59 | 1024.0 |
| 20260509054137 | 67 | 296 | 1.0 | 3.0 | 0.00 | 0.00 | 0.00 | 59 | 1024.0 |
| 20260509053523 | 66 | 193 | 1.0 | 2.0 | 0.00 | 0.00 | 0.00 | 60 | 1024.0 |
| 20260509053023 | 66 | 245 | 1.0 | 3.0 | 0.00 | 0.00 | 0.00 | 59 | 1024.0 |
| 20260509052522 | 66 | 205 | 1.0 | 4.0 | 0.00 | 0.00 | 0.00 | 59 | 1024.0 |
| 20260509052023 | 66 | 165 | 1.0 | 2.0 | 0.00 | 0.00 | 0.00 | 60 | 1024.0 |
| 20260509051638 | 65 | 196 | 2.0 | 3.0 | 0.00 | 0.00 | 0.00 | 61 | 1024.0 |
| 20260509051023 | 66 | 221 | 2.0 | 3.0 | 0.00 | 0.00 | 0.00 | 59 | 1024.0 |
| 20260509050523 | 66 | 222 | 2.0 | 4.0 | 0.00 | 0.00 | 0.00 | 59 | 1024.0 |
| 20260509050138 | 66 | 234 | 1.0 | 4.0 | 0.00 | 0.00 | 0.00 | 60 | 1024.0 |
| 20260509045522 | 67 | 287 | 1.0 | 3.0 | 0.00 | 0.00 | 0.00 | 58 | 1024.0 |
| 20260509045138 | 67 | 279 | 1.0 | 5.0 | 0.00 | 0.00 | 0.00 | 58 | 1024.0 |
| 20260509044522 | 67 | 275 | 1.0 | 3.0 | 0.00 | 0.00 | 0.00 | 59 | 1024.0 |
| 20260509044022 | 67 | 261 | 2.0 | 4.0 | 0.00 | 0.00 | 0.00 | 57 | 1024.0 |
| 20260509043522 | 68 | 207 | 1.0 | 4.0 | 0.00 | 0.00 | 0.00 | 58 | 1024.0 |
| 20260509043023 | 68 | 177 | 0.0 | 3.0 | 0.00 | 0.00 | 0.00 | 59 | 1024.0 |
| 20260509042523 | 67 | 220 | 0.0 | 3.0 | 0.00 | 0.00 | 0.00 | 59 | 1024.0 |
| 20260509042022 | 67 | 225 | 1.0 | 3.0 | 0.00 | 0.00 | 0.00 | 61 | 1024.0 |
| 20260509041523 | 65 | 231 | 1.0 | 4.0 | 0.00 | 0.00 | 0.00 | 61 | 1024.0 |
| 20260509041023 | 66 | 276 | 2.0 | 3.0 | 0.00 | 0.00 | 0.00 | 62 | 1024.0 |
| 20260509040523 | 66 | 309 | 3.0 | 5.0 | 0.00 | 0.00 | 0.00 | 61 | 1024.0 |
| 20260509040023 | 66 | 315 | 3.0 | 4.0 | 0.00 | 0.00 | 0.00 | 63 | 1024.0 |
| 20260509035523 | 66 | 306 | 2.0 | 4.0 | 0.00 | 0.00 | 0.00 | 63 | 1024.0 |
| 20260509035023 | 66 | 329 | 1.0 | 4.0 | 0.00 | 0.00 | 0.00 | 64 | 1024.0 |
| 20260509034523 | 66 | 60 | 1.0 | 4.0 | 0.00 | 0.00 | 0.00 | 64 | 1024.0 |
| 20260509034022 | 65 | 113 | 1.0 | 3.0 | 0.00 | 0.00 | 0.00 | 66 | 1024.0 |
| 20260509033522 | 63 | 185 | 2.0 | 4.0 | 0.00 | 0.00 | 0.00 | 70 | 1024.0 |
| 20260509033023 | 63 | 225 | 2.0 | 5.0 | 0.00 | 0.00 | 0.00 | 70 | 1024.0 |
| 20260509032523 | 64 | 236 | 1.0 | 4.0 | 0.00 | 0.00 | 0.00 | 70 | 1024.0 |
| 20260509032022 | 63 | 200 | 2.0 | 5.0 | 0.00 | 0.00 | 0.00 | 70 | 1024.0 |
| 20260509031638 | 63 | 194 | 2.0 | 4.0 | 0.00 | 0.00 | 0.00 | 72 | 1024.0 |
| 20260509031022 | 62 | 207 | 2.0 | 6.0 | 0.00 | 0.00 | 0.00 | 71 | 1024.0 |
| 20260509030522 | 63 | 232 | 1.0 | 4.0 | 0.00 | 0.00 | 0.00 | 74 | 1024.0 |
| 20260509030023 | 63 | 235 | 1.0 | 4.0 | 0.00 | 0.00 | 0.00 | 75 | 1024.0 |
| 20260509025523 | 62 | 188 | 2.0 | 5.0 | 0.00 | 0.00 | 0.00 | 80 | 1024.0 |
| 20260509025023 | 61 | 166 | 1.0 | 6.0 | 0.00 | 0.00 | 0.00 | 84 | 1025.0 |
| 20260509024523 | 62 | 148 | 0.0 | 0.0 | 0.00 | 0.00 | 0.00 | 85 | 1025.0 |
| 20260509024023 | 60 | 140 | 2.0 | 4.0 | 0.00 | 0.00 | 0.00 | 88 | 1025.0 |
| 20260509023522 | 60 | 130 | 2.0 | 5.0 | 0.00 | 0.00 | 0.00 | 89 | 1025.0 |
| 20260509023023 | 61 | 114 | 1.0 | 4.0 | 0.00 | 0.00 | 0.00 | 91 | 1025.0 |
| 20260509022523 | 60 | 125 | 2.0 | 3.0 | 0.00 | 0.00 | 0.00 | 93 | 1025.0 |
| 20260509022023 | 59 | 123 | 2.0 | 5.0 | 0.00 | 0.00 | 0.00 | 93 | 1025.0 |
| 20260509021523 | 60 | 123 | 2.0 | 4.0 | 0.00 | 0.00 | 0.00 | 94 | 1025.0 |
| 20260509021022 | 59 | 137 | 3.0 | 4.0 | 0.00 | 0.00 | 0.00 | 95 | 1025.0 |
| 20260509020523 | 59 | 136 | 3.0 | 5.0 | 0.00 | 0.00 | 0.00 | 95 | 1025.0 |
| 20260509020138 | 58 | 138 | 2.0 | 3.0 | 0.00 | 0.00 | 0.00 | 96 | 1025.0 |
| 20260509015523 | 58 | 141 | 3.0 | 4.0 | 0.00 | 0.00 | 0.00 | 98 | 1025.0 |
| 20260509015022 | 57 | 162 | 2.0 | 4.0 | 0.00 | 0.00 | 0.00 | 97 | 1025.0 |
| 20260509014523 | 58 | 174 | 1.0 | 4.0 | 0.00 | 0.00 | 0.00 | 100 | 1025.0 |
| 20260509014137 | 57 | 164 | 1.0 | 4.0 | 0.00 | 0.00 | 0.00 | 100 | 1025.0 |
| 20260509013522 | 56 | 156 | 1.0 | 5.0 | 0.00 | 0.00 | 0.00 | 100 | 1026.0 |
| 20260509013023 | 57 | 143 | 1.0 | 4.0 | 0.00 | 0.00 | 0.00 | 100 | 1026.0 |
| 20260509012522 | 57 | 147 | 0.0 | 4.0 | 0.00 | 0.00 | 0.00 | 100 | 1026.0 |
| 20260509012022 | 57 | 133 | 0.0 | 3.0 | 0.00 | 0.00 | 0.00 | 100 | 1026.0 |
| 20260509011523 | 56 | 121 | 1.0 | 3.0 | 0.00 | 0.00 | 0.00 | 100 | 1026.0 |